[[{"header":{"parameterUnit":"m.s-1","parameterCategory":2,"la1":30.2991,"la2":30.254,"lo1":-89.0895,"lo2":-89.0444,"dy":0.0017,"dx":0.0017,"nx":28,"ny":28,"refTime":"2024-06-09T03:00:00:Z","depth":"0","parameterNumber":2,"parameterNumberName":"U-component_of_CURRENTS"},"data":[0,0,0,0,0,0,0,0,0,0,0,0,0,0,0,0,0,0,0,0,0,0,0,0,0,0,0,0,0,0,0,0,0,0,0,0,0,0,0,0,0,0,0,0,0,0,0,0,0,0,0,0,0,0,0,0,0,0,0.3331,0.3331,0,0.3325,0.3325,0.3325,0.33,0.33,0.33,0.3299,0.3278,0.3278,0.3278,0,0,0,0,0,0,0,0,0,0,0,0,0,0.3328,0.3328,0.3331,0.3331,0.3331,0.3325,0.3325,0.3325,0.3301,0.33,0.33,0.3299,0.3278,0.3278,0.3278,0,0,0,0,0,0,0,0,0,0,0,0,0,0.3325,0.3328,0.3331,0.332,0.3319,0.3326,0.3325,0.3325,0.3301,0.33,0.33,0.3299,0.3279,0.3278,0.3278,0.3286,0,0,0.3277,0.3277,0,0,0,0,0,0,0,0,0.3325,0.3324,0.3321,0.3321,0.332,0.3315,0.3317,0.3312,0.3301,0.3305,0.3299,0.3299,0.3291,0.329,0.3287,0.3285,0.3284,0.3277,0.3277,0.3276,0.3276,0,0,0,0,0,0,0,0.3325,0.3324,0.3326,0.3322,0.3321,0.3319,0.3317,0.3316,0.3299,0.3305,0.3303,0.3307,0.329,0.3287,0.3286,0.3284,0.3277,0.3276,0.3276,0.3276,0.3373,0.3376,0,0,0,0,0,0,0.3331,0.3325,0.3326,0.3326,0.3324,0.3319,0.3318,0.3315,0.3299,0.3297,0.3308,0.3306,0.3288,0.3286,0.3285,0.3352,0.3276,0.3276,0.3276,0.337,0.3374,0.3377,0,0,0,0,0,0,0.3331,0.3331,0.3326,0.3328,0.3327,0.332,0.3318,0.3315,0.3318,0.3302,0.3299,0.3313,0.3287,0.3286,0.3293,0.3349,0.3276,0.3276,0.3367,0.3371,0.3375,0.3449,0,0,0,0,0,0,0.3331,0.3331,0.3332,0.3328,0.3327,0.334,0.3318,0.3316,0.3322,0.3319,0.3306,0.3303,0.3287,0.3294,0.3293,0.3347,0.3275,0.3363,0.3369,0.3374,0.3443,0.3456,0.3466,0,0,0,0,0,0.333,0.3336,0.3332,0.3333,0.3329,0.3341,0.3341,0.3332,0.3323,0.3331,0.3321,0.3303,0.3328,0.3295,0.3293,0.3349,0.3361,0.3367,0.3373,0.3438,0.3453,0.3466,0,0,0,0,0,0,0.3334,0.3334,0.333,0.3334,0.3343,0.3338,0.3345,0.334,0.3339,0.3337,0.3316,0.3313,0.3354,0.3339,0.3303,0.3398,0.3352,0.3358,0.3402,0.3416,0.3427,0.3501,0.3275,0,0,0,0,0,0.3337,0.3341,0.3344,0.3349,0.3355,0.3352,0.3356,0.3354,0.3353,0.3351,0.3342,0.335,0.338,0.3383,0.3399,0.3428,0.347,0.3473,0.3484,0.3494,0.3557,0.3669,0.3697,0.3397,0.3397,0.3397,0,0,0.3339,0.3341,0.3342,0.3351,0.3354,0.3372,0.3353,0.3367,0.3392,0.335,0.3375,0.3386,0.3399,0.3445,0.3463,0.3434,0.3592,0.3502,0.3509,0.3569,0.3679,0.3709,0.3735,0.3401,0.3401,0.34,0,0,0.3351,0.3349,0.336,0.3372,0.3387,0.3391,0.3399,0.3404,0.3418,0.3436,0.3441,0.3501,0.3487,0.355,0.357,0.3659,0.3653,0.3643,0.3752,0.3858,0.3884,0.3908,0.3957,0.3985,0.3642,0.3642,0.3642,0,0.3354,0.3363,0.3367,0.3386,0.3404,0.3403,0.3429,0.3447,0.3456,0.3505,0.3453,0.3563,0.3563,0.3692,0.3724,0.3693,0.372,0.3687,0.3875,0.3899,0.3923,0.3967,0.3997,0.3646,0.3646,0.3645,0.3645,0,0.3373,0.3386,0.3397,0.3421,0.3447,0.3465,0.3498,0.3536,0.3544,0.358,0.3694,0.3711,0.3794,0.38,0.3781,0.396,0.3912,0.3877,0.3839,0.3958,0.3996,0.4025,0.3652,0.3651,0.365,0.3649,0,0,0.3359,0.3401,0.3404,0.3431,0.3467,0.3494,0.3564,0.3647,0.373,0.3757,0.3883,0.396,0.3999,0.4033,0.4039,0.4133,0.4293,0.4074,0.4077,0.4122,0.4489,0.4274,0.4285,0.4272,0.4279,0.4284,0.4433,0,0.337,0.3411,0.3437,0.3491,0.3517,0.3569,0.3644,0.3733,0.3798,0.3915,0.4011,0.4112,0.4075,0.4124,0.4225,0.4291,0.4382,0.4254,0.4372,0.4376,0.4171,0.4318,0.4058,0.4155,0.4461,0.4466,0.447,0,0.3373,0.3406,0.3453,0.3548,0.357,0.3613,0.3765,0.3835,0.4015,0.4078,0.4223,0.4277,0.4462,0.4381,0.4598,0.4506,0.453,0.4558,0.4563,0.4377,0.422,0.4097,0.4197,0.4109,0.4515,0.4512,0.4508,0,0.3353,0.3422,0.3462,0.3484,0.3587,0.3653,0.3728,0.3894,0.4007,0.4202,0.4307,0.4491,0.4599,0.4696,0.4741,0.4687,0.4935,0.4858,0.4696,0.4677,0.4496,0.4449,0.4535,0.5034,0.5033,0.5033,0.5033,0,0.3343,0.3377,0.3457,0.3476,0.3584,0.3659,0.3815,0.392,0.4116,0.4264,0.4397,0.4537,0.4687,0.4814,0.483,0.4853,0.501,0.4776,0.4735,0.4502,0.4457,0.4399,0.4365,0.5038,0.5037,0.5036,0.5035,0,0.3302,0.3342,0.3405,0.3517,0.3568,0.3649,0.3856,0.3967,0.4148,0.4347,0.4417,0.4642,0.4772,0.4868,0.5024,0.495,0.4839,0.4949,0.463,0.4547,0.4241,0.4219,0.4133,0.4032,0.481,0.4806,0.4803,0,0.3278,0.3298,0.3424,0.348,0.3529,0.367,0.3769,0.3964,0.4076,0.4382,0.4457,0.4669,0.4745,0.4882,0.4806,0.4795,0.4715,0.4537,0.4399,0.4243,0.4193,0.4042,0.3956,0.4184,0.4176,0.4169,0.4164,0,0.3246,0.3288,0.3349,0.346,0.3553,0.368,0.382,0.3913,0.4126,0.4271,0.4442,0.4535,0.4627,0.4487,0.4449,0.4411,0.4283,0.4393,0.4363,0.3839,0.3562,0.3433,0.404,0.4105,0.4111,0.4115,0.4118,0.412,0.3231,0.3269,0.3348,0.3449,0.3545,0.3631,0.367,0.3794,0.3927,0.4024,0.4239,0.4232,0.421,0.4095,0.4037,0.3778,0.3845,0.3633,0.3661,0.3556,0.3332,0.3766,0.3683,0.3686,0.3689,0.3692,0.3694,0,0.3202,0.3249,0.3334,0.3422,0.3452,0.3545,0.3646,0.3616,0.3632,0.3732,0.3789,0.3702,0.3529,0.3493,0.3268,0.3096,0.2979,0.303,0.2833,0.2821,0.3335,0.3178,0.282,0.282,0.282,0.282,0.2821,0.2821,0.3192,0.3235,0.327,0.3294,0.3331,0.3295,0.3297,0.3252,0.3264,0.3146,0.3047,0.306,0.3136,0.299,0.2761,0.2686,0.2551,0.2333,0.2464,0.2888,0.2948,0.3006,0.2855,0.2435,0.2434,0.1783,0.1778,0.1774]},{"header":{"parameterUnit":"m.s-1","parameterCategory":2,"la1":30.2991,"la2":30.254,"lo1":-89.0895,"lo2":-89.0444,"dy":0.0017,"dx":0.0017,"nx":28,"ny":28,"refTime":"2024-06-09T03:00:00:Z","depth":"0","parameterNumber":3,"parameterNumberName":"V-component_of_CURRENTS"},"data":[0,0,0,0,0,0,0,0,0,0,0,0,0,0,0,0,0,0,0,0,0,0,0,0,0,0,0,0,0,0,0,0,0,0,0,0,0,0,0,0,0,0,0,0,0,0,0,0,0,0,0,0,0,0,0,0,0,0,0.0314,0.0314,0,0.0291,0.0291,0.029,0.0271,0.0271,0.027,0.027,0.0235,0.0234,0.0233,0,0,0,0,0,0,0,0,0,0,0,0,0,0.0316,0.0317,0.0314,0.0314,0.0314,0.0291,0.0291,0.029,0.0271,0.0271,0.027,0.027,0.0235,0.0234,0.0233,0,0,0,0,0,0,0,0,0,0,0,0,0,0.0306,0.0317,0.0314,0.0302,0.0301,0.0291,0.0291,0.029,0.0271,0.0271,0.027,0.027,0.0235,0.0234,0.0233,0.023,0,0,0.0229,0.0228,0,0,0,0,0,0,0,0,0.0307,0.0306,0.0304,0.0303,0.0301,0.0284,0.0278,0.027,0.0271,0.0281,0.027,0.027,0.0251,0.0248,0.0243,0.0228,0.0226,0.0229,0.0228,0.0228,0.0227,0,0,0,0,0,0,0,0.0307,0.0307,0.0304,0.0304,0.0302,0.0289,0.0287,0.0276,0.0267,0.028,0.0279,0.0278,0.025,0.0245,0.0242,0.0226,0.0229,0.0228,0.0227,0.0227,0.0221,0.0222,0,0,0,0,0,0,0.0313,0.0307,0.0305,0.0304,0.0304,0.0289,0.0287,0.0289,0.0267,0.0264,0.0278,0.0277,0.0247,0.0244,0.0241,0.0263,0.0228,0.0226,0.0226,0.0221,0.0222,0.0222,0,0,0,0,0,0,0.0314,0.0314,0.0306,0.0305,0.0304,0.029,0.0292,0.0289,0.0287,0.0265,0.0262,0.0279,0.0246,0.0243,0.0239,0.026,0.0226,0.0225,0.022,0.0221,0.0222,0.0289,0,0,0,0,0,0,0.0314,0.0314,0.0318,0.0306,0.0304,0.0309,0.0292,0.0289,0.0286,0.0285,0.0265,0.0261,0.0246,0.0241,0.0237,0.0258,0.0224,0.0219,0.0221,0.0222,0.0286,0.0292,0.0297,0,0,0,0,0,0.0314,0.0324,0.0319,0.0318,0.031,0.031,0.0308,0.0296,0.0287,0.0292,0.0278,0.0262,0.0245,0.024,0.0236,0.0257,0.0219,0.022,0.0222,0.0284,0.0291,0.0297,0,0,0,0,0,0,0.0327,0.0322,0.0316,0.0324,0.032,0.0307,0.031,0.03,0.0292,0.0292,0.0268,0.0264,0.0269,0.0251,0.0245,0.0258,0.023,0.0231,0.0279,0.0285,0.0291,0.0329,0.0223,0,0,0,0,0,0.0332,0.0339,0.033,0.0338,0.0337,0.0324,0.0322,0.0316,0.0306,0.0303,0.0289,0.0276,0.0271,0.0268,0.0258,0.0264,0.026,0.0274,0.028,0.0285,0.0312,0.0327,0.0337,0.0227,0.0227,0.0227,0,0,0.0339,0.0338,0.0341,0.0341,0.0337,0.035,0.0323,0.0326,0.0341,0.03,0.0315,0.0294,0.0276,0.0285,0.0286,0.0273,0.0309,0.0286,0.0291,0.0317,0.0329,0.034,0.035,0.0228,0.0227,0.0227,0,0,0.0362,0.0356,0.0372,0.0373,0.0373,0.0369,0.0372,0.0364,0.0364,0.0371,0.0349,0.0349,0.0331,0.0333,0.0329,0.036,0.0337,0.0345,0.0408,0.0421,0.0431,0.044,0.0432,0.0439,0.035,0.035,0.035,0,0.0372,0.0393,0.0376,0.0394,0.0406,0.0382,0.0409,0.0406,0.0398,0.0415,0.0385,0.0391,0.0363,0.0399,0.0402,0.0377,0.037,0.0385,0.0431,0.044,0.0448,0.0437,0.0444,0.0353,0.0353,0.0353,0.0352,0,0.0408,0.0426,0.0437,0.0456,0.0464,0.0482,0.048,0.0491,0.0485,0.0488,0.0515,0.0483,0.0496,0.0476,0.0445,0.049,0.046,0.0436,0.0419,0.0463,0.0448,0.0455,0.0358,0.0357,0.0356,0.0355,0,0,0.0436,0.046,0.0467,0.0497,0.0502,0.0522,0.0549,0.0582,0.0628,0.0605,0.0668,0.0637,0.0626,0.0622,0.0586,0.0587,0.0612,0.0536,0.0535,0.0538,0.0628,0.0573,0.0574,0.0593,0.0595,0.0597,0.0589,0,0.0477,0.0529,0.0528,0.0591,0.0623,0.062,0.066,0.0684,0.0697,0.0748,0.0728,0.0765,0.068,0.0697,0.0684,0.0647,0.0635,0.0616,0.0577,0.0577,0.0531,0.0583,0.059,0.0582,0.0595,0.0596,0.0597,0,0.0522,0.0555,0.0616,0.0684,0.07,0.0732,0.081,0.0846,0.0896,0.0912,0.0936,0.0919,0.0934,0.085,0.0813,0.0803,0.0724,0.0674,0.0672,0.0612,0.0536,0.0542,0.0593,0.0511,0.0607,0.0606,0.0605,0,0.0569,0.0628,0.0685,0.0702,0.0761,0.0801,0.0845,0.0899,0.0974,0.103,0.1099,0.108,0.1118,0.1023,0.0905,0.0868,0.0853,0.079,0.0663,0.0656,0.0653,0.0644,0.0635,0.0759,0.0759,0.0759,0.0759,0,0.0623,0.0675,0.0714,0.0748,0.085,0.0865,0.099,0.1024,0.112,0.1253,0.1198,0.1305,0.1167,0.1134,0.0979,0.0855,0.091,0.0698,0.0666,0.0671,0.0664,0.0583,0.0505,0.0758,0.0758,0.0758,0.0758,0,0.0669,0.0688,0.0769,0.0838,0.0874,0.095,0.1098,0.12,0.1263,0.1439,0.1474,0.1505,0.1465,0.129,0.1158,0.0983,0.0779,0.0771,0.0773,0.074,0.0522,0.0447,0.038,0.0345,0.0641,0.064,0.0639,0,0.0698,0.0737,0.0838,0.0909,0.0947,0.1068,0.1173,0.1267,0.1393,0.1584,0.1689,0.17,0.1741,0.1504,0.1192,0.0911,0.078,0.0713,0.0637,0.0537,0.043,0.0376,0.0348,0.065,0.0649,0.0648,0.0648,0,0.0758,0.0788,0.0858,0.1001,0.1114,0.1264,0.1418,0.1539,0.1689,0.1843,0.2039,0.2084,0.1861,0.161,0.1194,0.0979,0.0651,0.0688,0.0609,0.0464,0.0387,0.0329,0.0608,0.0642,0.0643,0.0643,0.0643,0.0644,0.0811,0.0876,0.0973,0.1116,0.1257,0.1448,0.1589,0.1772,0.1997,0.2222,0.2262,0.2337,0.1963,0.1412,0.1135,0.0626,0.0605,0.0464,0.0388,0.0351,0.03,0.0549,0.0526,0.0525,0.0525,0.0525,0.0525,0,0.0881,0.0962,0.1093,0.127,0.1438,0.15,0.1752,0.1907,0.2177,0.2345,0.2489,0.2328,0.1876,0.1395,0.0706,0.0393,0.0294,0.023,0.0183,0.0174,0.0431,0.0417,0.0342,0.0342,0.0342,0.0342,0.0342,0.0343,0.0927,0.1054,0.1123,0.1394,0.1528,0.1756,0.1903,0.2132,0.2292,0.2486,0.2505,0.2484,0.2146,0.1023,0.0337,0.0173,0.0012,-0.0071,-0.0136,0.0057,0.0075,0.0092,0.0064,-0.0083,-0.0084,-0.0327,-0.033,-0.0332]}],[{"header":{"parameterUnit":"m.s-1","parameterCategory":2,"la1":30.2991,"la2":30.254,"lo1":-89.0895,"lo2":-89.0444,"dy":0.0017,"dx":0.0017,"nx":28,"ny":28,"refTime":"2024-06-09T03:00:00:Z","depth":"2","parameterNumber":2,"parameterNumberName":"U-component_of_CURRENTS"},"data":[0,0,0,0,0,0,0,0,0,0,0,0,0,0,0,0,0,0,0,0,0,0,0,0,0,0,0,0,0,0,0,0,0,0,0,0,0,0,0,0,0,0,0,0,0,0,0,0,0,0,0,0,0,0,0,0,0,0,0.2905,0.2905,0,0.2901,0.2901,0.29,0.2891,0.2891,0.2891,0.2891,0.2877,0.2877,0.2876,0,0,0,0,0,0,0,0,0,0,0,0,0,0.2909,0.2908,0.2905,0.2905,0.2905,0.2901,0.2901,0.29,0.2891,0.2891,0.2891,0.2891,0.2877,0.2877,0.2876,0,0,0,0,0,0,0,0,0,0,0,0,0,0.2904,0.2908,0.2905,0.2902,0.2901,0.2901,0.2901,0.29,0.2891,0.2891,0.2891,0.2891,0.2877,0.2877,0.2876,0.2873,0,0,0.2875,0.2874,0,0,0,0,0,0,0,0,0.2904,0.2904,0.2902,0.2902,0.2902,0.2898,0.2897,0.2891,0.2891,0.2893,0.2891,0.2891,0.2885,0.2884,0.288,0.2872,0.2871,0.2874,0.2874,0.2874,0.2874,0,0,0,0,0,0,0,0.2905,0.2904,0.2901,0.2902,0.2902,0.2902,0.2901,0.2896,0.2887,0.2892,0.2892,0.2895,0.2884,0.288,0.2879,0.2871,0.2875,0.2874,0.2874,0.2873,0.2949,0.2952,0,0,0,0,0,0,0.2909,0.2904,0.2901,0.2901,0.2905,0.2902,0.2901,0.2898,0.2887,0.2886,0.2895,0.2895,0.2881,0.288,0.2879,0.2936,0.2874,0.2873,0.2873,0.2947,0.295,0.2952,0,0,0,0,0,0,0.2909,0.2909,0.2901,0.2905,0.2904,0.2902,0.2898,0.2898,0.2907,0.289,0.2888,0.2908,0.2881,0.288,0.2891,0.2933,0.2873,0.2873,0.2944,0.2948,0.2951,0.3012,0,0,0,0,0,0,0.2909,0.2909,0.2913,0.2905,0.2904,0.2914,0.2899,0.2898,0.2909,0.2909,0.29,0.2898,0.2881,0.2892,0.2891,0.2932,0.2872,0.2941,0.2946,0.295,0.3007,0.3017,0.3025,0,0,0,0,0,0.2909,0.2914,0.2913,0.2913,0.2908,0.2915,0.2915,0.2912,0.291,0.292,0.2916,0.2899,0.292,0.2893,0.2891,0.2932,0.2939,0.2944,0.295,0.3002,0.3015,0.3025,0,0,0,0,0,0,0.2917,0.2913,0.2912,0.2915,0.2922,0.2915,0.2924,0.2923,0.2927,0.293,0.2911,0.2909,0.2947,0.2931,0.2901,0.2972,0.2934,0.2939,0.2975,0.2987,0.2996,0.3035,0.2872,0,0,0,0,0,0.2921,0.2924,0.2924,0.2929,0.2934,0.2933,0.2938,0.2939,0.2939,0.2941,0.2937,0.2944,0.2966,0.2966,0.298,0.2998,0.3028,0.3032,0.3042,0.3049,0.3083,0.3183,0.3205,0.297,0.297,0.297,0,0,0.2925,0.2925,0.2926,0.2931,0.2935,0.295,0.2936,0.2951,0.2971,0.2939,0.2966,0.2977,0.2982,0.3017,0.3033,0.3005,0.3125,0.3056,0.3062,0.3093,0.3191,0.3214,0.3234,0.2973,0.2973,0.2972,0,0,0.2935,0.2937,0.2944,0.2956,0.297,0.2972,0.2982,0.2988,0.3001,0.3022,0.3025,0.3068,0.3066,0.3098,0.3109,0.3181,0.3181,0.318,0.3244,0.334,0.336,0.3379,0.3412,0.3433,0.3173,0.3173,0.3173,0,0.2943,0.2946,0.295,0.2966,0.2979,0.2986,0.3003,0.3021,0.3033,0.3061,0.3041,0.3123,0.3118,0.3198,0.3223,0.3205,0.3237,0.3192,0.3353,0.3372,0.339,0.342,0.3442,0.3176,0.3176,0.3176,0.3175,0,0.2956,0.2967,0.2977,0.2997,0.3016,0.3032,0.3057,0.3089,0.3103,0.3126,0.3213,0.3228,0.3286,0.329,0.327,0.34,0.3373,0.3361,0.3322,0.3418,0.3442,0.3464,0.3181,0.318,0.3179,0.3178,0,0,0.2944,0.2977,0.2981,0.2996,0.3032,0.3045,0.3101,0.3152,0.3214,0.3245,0.3335,0.3385,0.3421,0.3442,0.3447,0.3516,0.3645,0.3491,0.3495,0.352,0.3824,0.3652,0.3659,0.3663,0.3668,0.3672,0.3776,0,0.2951,0.2981,0.2999,0.3034,0.305,0.309,0.3145,0.3204,0.3261,0.3353,0.3416,0.3503,0.347,0.3519,0.3592,0.3651,0.3714,0.3616,0.3733,0.3736,0.357,0.3684,0.3362,0.3417,0.3798,0.3801,0.3804,0,0.295,0.2973,0.3003,0.3059,0.3073,0.3109,0.3213,0.3263,0.34,0.3459,0.3574,0.3625,0.3755,0.3711,0.3875,0.3815,0.3837,0.3861,0.3865,0.371,0.3608,0.3392,0.3443,0.3841,0.3838,0.3836,0.3833,0,0.2925,0.2971,0.2993,0.3009,0.308,0.3125,0.3179,0.3304,0.339,0.3553,0.3651,0.3786,0.3886,0.3965,0.3997,0.3965,0.415,0.4108,0.397,0.3955,0.3709,0.3664,0.4237,0.4237,0.4237,0.4236,0.4236,0,0.2909,0.2926,0.299,0.3001,0.3066,0.3124,0.3233,0.3316,0.3488,0.359,0.3717,0.3827,0.3965,0.4061,0.4069,0.4082,0.4214,0.4018,0.3997,0.3713,0.3669,0.4061,0.4039,0.424,0.4239,0.4239,0.4238,0,0.2866,0.2901,0.2929,0.3011,0.3051,0.3098,0.3263,0.3351,0.3517,0.3668,0.3733,0.3926,0.4026,0.4106,0.4227,0.4165,0.4192,0.415,0.3771,0.3702,0.3913,0.3893,0.4042,0.4037,0.4034,0.403,0.4027,0,0.2841,0.2852,0.2928,0.296,0.3,0.3099,0.3178,0.3351,0.3437,0.3684,0.3736,0.3921,0.3964,0.4077,0.4023,0.4014,0.4113,0.3689,0.3574,0.3942,0.3907,0.3893,0.3879,0.3262,0.3254,0.3247,0.3241,0,0.2797,0.2824,0.2851,0.2928,0.2998,0.3067,0.3178,0.3249,0.3422,0.3544,0.3654,0.3725,0.3824,0.3661,0.3658,0.3604,0.3665,0.3539,0.4085,0.3341,0.321,0.3173,0.3185,0.3177,0.3183,0.3188,0.3191,0.3194,0.2768,0.2775,0.2825,0.288,0.295,0.2979,0.2992,0.3078,0.3162,0.3243,0.3413,0.3397,0.3423,0.325,0.3128,0.3043,0.3302,0.314,0.3162,0.3191,0.3063,0.293,0.2818,0.2822,0.2825,0.2829,0.2831,0,0.2712,0.2733,0.278,0.2808,0.2812,0.2903,0.2944,0.2887,0.2854,0.2966,0.3008,0.276,0.2641,0.268,0.2446,0.2414,0.24,0.2307,0.2266,0.2331,0.2389,0.2219,0.1751,0.1747,0.1744,0.1741,0,0,0.2687,0.268,0.2687,0.2651,0.2679,0.2616,0.2597,0.2519,0.2521,0.2429,0.2404,0.2584,0.2637,0.2189,0.2098,0.189,0.2107,0.181,0.2683,0.2706,0.276,0.2875,0.2687,0,0,0,0,0]},{"header":{"parameterUnit":"m.s-1","parameterCategory":2,"la1":30.2991,"la2":30.254,"lo1":-89.0895,"lo2":-89.0444,"dy":0.0017,"dx":0.0017,"nx":28,"ny":28,"refTime":"2024-06-09T03:00:00:Z","depth":"2","parameterNumber":3,"parameterNumberName":"V-component_of_CURRENTS"},"data":[0,0,0,0,0,0,0,0,0,0,0,0,0,0,0,0,0,0,0,0,0,0,0,0,0,0,0,0,0,0,0,0,0,0,0,0,0,0,0,0,0,0,0,0,0,0,0,0,0,0,0,0,0,0,0,0,0,0,0.0186,0.0186,0,0.0165,0.0165,0.0165,0.015,0.015,0.015,0.015,0.0121,0.012,0.012,0,0,0,0,0,0,0,0,0,0,0,0,0,0.019,0.019,0.0186,0.0186,0.0186,0.0165,0.0165,0.0165,0.015,0.015,0.015,0.0149,0.0121,0.012,0.012,0,0,0,0,0,0,0,0,0,0,0,0,0,0.018,0.019,0.0186,0.0176,0.0175,0.0165,0.0165,0.0164,0.015,0.015,0.015,0.0149,0.0121,0.012,0.0119,0.0115,0,0,0.0116,0.0116,0,0,0,0,0,0,0,0,0.0181,0.018,0.0178,0.0177,0.0176,0.016,0.0156,0.0148,0.015,0.0159,0.015,0.0149,0.0134,0.0132,0.0127,0.0114,0.0113,0.0116,0.0116,0.0115,0.0115,0,0,0,0,0,0,0,0.0181,0.0181,0.0177,0.0178,0.0176,0.0165,0.0163,0.0154,0.0147,0.0158,0.0157,0.0156,0.0133,0.0129,0.0127,0.0112,0.0116,0.0115,0.0115,0.0114,0.0107,0.0108,0,0,0,0,0,0,0.0187,0.0181,0.0178,0.0177,0.0179,0.0165,0.0163,0.0165,0.0147,0.0144,0.0156,0.0155,0.013,0.0128,0.0126,0.0146,0.0115,0.0114,0.0114,0.0107,0.0107,0.0108,0,0,0,0,0,0,0.0187,0.0187,0.0179,0.0179,0.0177,0.0165,0.0167,0.0165,0.0164,0.0145,0.0142,0.0158,0.013,0.0127,0.0125,0.0143,0.0114,0.0113,0.0106,0.0107,0.0108,0.0169,0,0,0,0,0,0,0.0187,0.0187,0.0191,0.0179,0.0177,0.0181,0.0167,0.0164,0.0163,0.0162,0.0146,0.0143,0.013,0.0127,0.0124,0.0141,0.0112,0.0106,0.0107,0.0107,0.0166,0.0171,0.0176,0,0,0,0,0,0.0187,0.0195,0.0191,0.0191,0.0183,0.0182,0.018,0.017,0.0163,0.0168,0.0157,0.0144,0.013,0.0126,0.0123,0.014,0.0105,0.0106,0.0107,0.0164,0.017,0.0176,0,0,0,0,0,0,0.0199,0.0194,0.0189,0.0196,0.0192,0.018,0.0183,0.0175,0.0169,0.0169,0.0149,0.0146,0.0151,0.0134,0.0131,0.014,0.0115,0.0116,0.0159,0.0165,0.017,0.0192,0.0111,0,0,0,0,0,0.0204,0.021,0.0201,0.0208,0.0207,0.0196,0.0194,0.0189,0.0181,0.0178,0.0167,0.0156,0.0151,0.015,0.014,0.0145,0.0133,0.0153,0.0158,0.0162,0.0178,0.0183,0.019,0.0111,0.0111,0.0111,0,0,0.0209,0.0208,0.0211,0.0211,0.0207,0.0219,0.0195,0.0198,0.0212,0.0176,0.0191,0.0172,0.0155,0.0163,0.0164,0.0153,0.0174,0.0164,0.0168,0.0181,0.0184,0.0192,0.0199,0.0112,0.0112,0.0112,0,0,0.023,0.0225,0.0239,0.024,0.024,0.0237,0.024,0.0232,0.0233,0.024,0.022,0.0217,0.0205,0.0202,0.0198,0.0223,0.0198,0.0214,0.026,0.0265,0.0272,0.0278,0.0256,0.026,0.0218,0.0218,0.0218,0,0.0239,0.0257,0.0243,0.0259,0.027,0.0249,0.0273,0.0271,0.0264,0.0275,0.0254,0.0251,0.0229,0.0251,0.0255,0.0237,0.0225,0.0241,0.0273,0.0279,0.0284,0.026,0.0264,0.0221,0.0221,0.0221,0.022,0,0.0271,0.0288,0.0298,0.0316,0.0324,0.034,0.0338,0.0348,0.0343,0.0341,0.0357,0.0327,0.0332,0.0316,0.0291,0.0319,0.0292,0.0278,0.0263,0.0296,0.0268,0.027,0.0226,0.0225,0.0224,0.0223,0,0,0.0294,0.0317,0.0324,0.0351,0.0359,0.0376,0.0399,0.0424,0.046,0.0436,0.0482,0.045,0.0435,0.0428,0.0397,0.039,0.0398,0.0351,0.035,0.0337,0.0391,0.0349,0.0347,0.0392,0.0393,0.0394,0.0351,0,0.0331,0.0379,0.0379,0.0437,0.0466,0.0463,0.0498,0.0514,0.0522,0.0558,0.0527,0.0552,0.0478,0.0491,0.0471,0.0431,0.041,0.041,0.0355,0.0353,0.0318,0.0351,0.0363,0.0325,0.0353,0.0354,0.0354,0,0.0372,0.0402,0.0458,0.0519,0.0533,0.0563,0.0628,0.0657,0.0687,0.0697,0.0702,0.0679,0.0672,0.0607,0.0546,0.055,0.0476,0.0426,0.0423,0.0369,0.0316,0.0298,0.0328,0.0358,0.0357,0.0357,0.0357,0,0.0413,0.0467,0.0519,0.0535,0.0588,0.0624,0.0663,0.0702,0.0764,0.0796,0.0847,0.0808,0.0826,0.0732,0.0609,0.059,0.0532,0.0496,0.0379,0.0374,0.0368,0.036,0.0449,0.0449,0.0449,0.0449,0.0449,0,0.0462,0.0508,0.0546,0.0577,0.0668,0.0682,0.0789,0.0816,0.0891,0.0991,0.0932,0.0995,0.0863,0.0806,0.0664,0.0533,0.0574,0.0399,0.0372,0.0385,0.038,0.0397,0.0392,0.0447,0.0448,0.0448,0.0448,0,0.0504,0.0522,0.0593,0.0657,0.0691,0.0759,0.089,0.0976,0.1021,0.1153,0.1178,0.1163,0.1086,0.0919,0.0775,0.0627,0.0488,0.042,0.0427,0.0402,0.0307,0.0305,0.0304,0.0303,0.0301,0.03,0.0299,0,0.0529,0.0565,0.0656,0.0721,0.0756,0.0865,0.0962,0.1041,0.1144,0.126,0.1339,0.1301,0.1286,0.1036,0.0778,0.0526,0.0481,0.0353,0.0315,0.0324,0.0298,0.0298,0.0298,0.032,0.0319,0.0318,0.0318,0,0.0583,0.0609,0.067,0.0803,0.0908,0.104,0.1176,0.1275,0.1387,0.1488,0.1588,0.1579,0.1352,0.1107,0.0751,0.0569,0.0393,0.0332,0.0372,0.035,0.0335,0.031,0.0311,0.0313,0.0313,0.0314,0.0314,0.0314,0.0628,0.0683,0.0771,0.0901,0.1032,0.1197,0.1316,0.1453,0.1617,0.1756,0.1746,0.1728,0.1443,0.0995,0.0686,0.0358,0.0381,0.0244,0.0249,0.0253,0.0258,0.0241,0.0201,0.0201,0.0201,0.0201,0.0201,0,0.0688,0.0756,0.0874,0.1029,0.118,0.1245,0.1457,0.156,0.1736,0.1844,0.1903,0.1625,0.1352,0.1018,0.0549,0.0262,0.024,0.0146,0.019,0.0198,0.0204,0.0208,0.0136,0.0135,0.0134,0.0134,0,0,0.0725,0.0833,0.0891,0.1127,0.125,0.1449,0.1573,0.171,0.1814,0.1889,0.1886,0.1842,0.1454,0.1091,0.0701,0.043,0.0374,0.0358,0.0441,0.0547,0.0556,0.0289,0.0307,0,0,0,0,0]}],[{"header":{"parameterUnit":"m.s-1","parameterCategory":2,"la1":30.2991,"la2":30.254,"lo1":-89.0895,"lo2":-89.0444,"dy":0.0017,"dx":0.0017,"nx":28,"ny":28,"refTime":"2024-06-09T03:00:00:Z","depth":"4","parameterNumber":2,"parameterNumberName":"U-component_of_CURRENTS"},"data":[0,0,0,0,0,0,0,0,0,0,0,0,0,0,0,0,0,0,0,0,0,0,0,0,0,0,0,0,0,0,0,0,0,0,0,0,0,0,0,0,0,0,0,0,0,0,0,0,0,0,0,0,0,0,0,0,0,0,0.1885,0.1886,0,0.1922,0.1923,0.1923,0.1973,0.1974,0.1975,0.1976,0.2033,0.2034,0.2035,0,0,0,0,0,0,0,0,0,0,0,0,0,0.1848,0.1849,0.1885,0.1886,0.1886,0.1922,0.1923,0.1923,0.1973,0.1974,0.1976,0.1977,0.2033,0.2034,0.2035,0,0,0,0,0,0,0,0,0,0,0,0,0,0.1871,0.1849,0.1885,0.1917,0.1921,0.1922,0.1923,0.1923,0.1973,0.1974,0.1976,0.1977,0.2033,0.2034,0.2035,0.201,0,0,0.2037,0.2038,0,0,0,0,0,0,0,0,0.187,0.1872,0.1912,0.1915,0.1919,0.1946,0.1931,0.1954,0.1972,0.1951,0.1976,0.1978,0.2006,0.2009,0.201,0.2013,0.2015,0.2038,0.2038,0.2038,0.2039,0,0,0,0,0,0,0,0.1868,0.1871,0.1898,0.1912,0.1917,0.1927,0.1931,0.1935,0.1969,0.1953,0.1957,0.1964,0.2008,0.2009,0.2012,0.2016,0.2037,0.2038,0.2039,0.2039,0.2119,0.2121,0,0,0,0,0,0,0.1866,0.1869,0.1897,0.1899,0.1899,0.1926,0.1931,0.1934,0.1968,0.1975,0.1962,0.1966,0.2007,0.2011,0.2014,0.2098,0.2038,0.2039,0.204,0.2118,0.212,0.2121,0,0,0,0,0,0,0.1865,0.1868,0.1895,0.1887,0.1891,0.1926,0.1928,0.1934,0.1978,0.1976,0.1983,0.2005,0.2008,0.2013,0.2059,0.2097,0.204,0.204,0.2116,0.2118,0.2121,0.2195,0,0,0,0,0,0,0.1863,0.1867,0.1889,0.1886,0.1892,0.1924,0.1927,0.1934,0.1978,0.1984,0.2013,0.2018,0.201,0.2058,0.206,0.2097,0.2041,0.2114,0.2117,0.212,0.219,0.2199,0.2207,0,0,0,0,0,0.1862,0.1877,0.189,0.1894,0.1914,0.1925,0.1929,0.1957,0.1979,0.2001,0.2029,0.2019,0.2079,0.206,0.2062,0.21,0.2112,0.2116,0.212,0.2187,0.2198,0.2207,0,0,0,0,0,0,0.1875,0.1884,0.1897,0.1917,0.1935,0.1935,0.1964,0.1979,0.2017,0.2039,0.2038,0.2044,0.2103,0.2088,0.2068,0.2132,0.2094,0.2099,0.2145,0.2155,0.2163,0.2159,0.2042,0,0,0,0,0,0.1886,0.1904,0.1911,0.1934,0.1946,0.1963,0.1981,0.1999,0.2021,0.2042,0.2063,0.2087,0.2109,0.2125,0.2142,0.217,0.2175,0.2196,0.2205,0.2212,0.2211,0.2272,0.2286,0.2133,0.2133,0.2133,0,0,0.1899,0.1908,0.192,0.194,0.1958,0.1978,0.1979,0.2017,0.2046,0.204,0.2105,0.2125,0.2127,0.2169,0.2192,0.2167,0.2257,0.2216,0.2223,0.2217,0.2278,0.2293,0.2306,0.2136,0.2135,0.2135,0,0,0.1916,0.1943,0.1959,0.1979,0.2013,0.2019,0.204,0.2067,0.2099,0.2148,0.216,0.2202,0.2233,0.2242,0.2247,0.2309,0.2308,0.2322,0.2354,0.2415,0.2428,0.244,0.246,0.2473,0.2318,0.2318,0.2318,0,0.1938,0.1951,0.1969,0.1991,0.2012,0.2043,0.2066,0.2097,0.2142,0.2164,0.2184,0.2252,0.2263,0.23,0.2329,0.2329,0.2355,0.2316,0.2427,0.2439,0.245,0.2468,0.2481,0.2322,0.2321,0.2321,0.232,0,0.1952,0.1982,0.1998,0.2032,0.2059,0.2088,0.2123,0.2167,0.2211,0.2234,0.2306,0.2331,0.2367,0.2382,0.2377,0.2452,0.2444,0.244,0.2402,0.247,0.2484,0.2496,0.2327,0.2326,0.2325,0.2324,0,0,0.1941,0.1995,0.2006,0.2022,0.2085,0.2094,0.2161,0.2201,0.2244,0.2306,0.236,0.2412,0.244,0.2448,0.2459,0.2505,0.2605,0.2512,0.2513,0.2532,0.2729,0.2547,0.2543,0.2639,0.2642,0.2644,0.2706,0,0.1948,0.1985,0.2015,0.2058,0.2075,0.2127,0.2178,0.223,0.2288,0.2354,0.2398,0.2465,0.2461,0.2503,0.2551,0.2599,0.2643,0.2587,0.266,0.266,0.2492,0.2553,0.2652,0.2716,0.2718,0.272,0.2722,0,0.194,0.1966,0.2008,0.2056,0.2071,0.2111,0.2186,0.2239,0.2335,0.2389,0.2463,0.2511,0.2591,0.2592,0.2698,0.2672,0.2711,0.2736,0.274,0.2549,0.2502,0.2635,0.2744,0.2742,0.2741,0.2739,0.2738,0,0.1891,0.195,0.198,0.2003,0.2072,0.211,0.216,0.2255,0.2314,0.2434,0.2499,0.2583,0.2666,0.2724,0.2789,0.2768,0.2901,0.2871,0.2733,0.272,0.2832,0.2819,0.2954,0.2954,0.2954,0.2954,0.2954,0,0.1856,0.1882,0.1966,0.198,0.2018,0.2093,0.2157,0.2225,0.2352,0.2411,0.2528,0.2591,0.2719,0.2802,0.2825,0.2811,0.2936,0.2741,0.273,0.286,0.2849,0.2841,0.2827,0.2956,0.2956,0.2955,0.2955,0,0.1788,0.1849,0.1881,0.1967,0.1996,0.2032,0.2151,0.2194,0.2341,0.2434,0.2488,0.2651,0.2746,0.2834,0.294,0.2851,0.2858,0.283,0.2959,0.2954,0.262,0.261,0.2648,0.2642,0.2638,0.2633,0.263,0,0.1749,0.1766,0.1858,0.1879,0.1922,0.1991,0.2033,0.2175,0.2229,0.243,0.2459,0.2631,0.2706,0.2707,0.2809,0.2826,0.2803,0.2766,0.2679,0.2606,0.2593,0.259,0.2586,0.2622,0.2621,0.262,0.2618,0,0.167,0.1726,0.1753,0.1797,0.1841,0.1876,0.1958,0.1987,0.2143,0.2302,0.2373,0.2424,0.2532,0.2594,0.265,0.2651,0.2755,0.2714,0.2723,0.2641,0.2576,0.2566,0.2568,0.2602,0.2604,0.2606,0.2607,0,0.1618,0.1614,0.1661,0.1679,0.1734,0.1734,0.1792,0.1848,0.1927,0.2152,0.2168,0.2341,0.2506,0.2506,0.2543,0.2543,0.2488,0.2373,0.2399,0.2419,0.2313,0.2195,0.2097,0,0,0,0,0,0.1552,0.1521,0.153,0.1532,0.1586,0.1618,0.1719,0.1788,0.1942,0.1936,0.2051,0.2131,0.2196,0.2294,0.2248,0.2429,0.2493,0.2358,0.2372,0.2508,0.2527,0.2423,0,0,0,0,0,0,0.1496,0.1504,0.1479,0.1407,0.1393,0.1428,0.149,0.1601,0.1612,0.1791,0.1857,0.1985,0.2105,0.2216,0.2209,0.2232,0.2187,0.2472,0.2465,0.2496,0.2514,0.253,0.243,0,0,0,0,0]},{"header":{"parameterUnit":"m.s-1","parameterCategory":2,"la1":30.2991,"la2":30.254,"lo1":-89.0895,"lo2":-89.0444,"dy":0.0017,"dx":0.0017,"nx":28,"ny":28,"refTime":"2024-06-09T03:00:00:Z","depth":"4","parameterNumber":3,"parameterNumberName":"V-component_of_CURRENTS"},"data":[0,0,0,0,0,0,0,0,0,0,0,0,0,0,0,0,0,0,0,0,0,0,0,0,0,0,0,0,0,0,0,0,0,0,0,0,0,0,0,0,0,0,0,0,0,0,0,0,0,0,0,0,0,0,0,0,0,0,0.0125,0.0125,0,0.0114,0.0114,0.0114,0.0108,0.0108,0.0108,0.0108,0.0095,0.0094,0.0094,0,0,0,0,0,0,0,0,0,0,0,0,0,0.0124,0.0124,0.0125,0.0125,0.0125,0.0114,0.0114,0.0114,0.0108,0.0108,0.0108,0.0108,0.0095,0.0095,0.0094,0,0,0,0,0,0,0,0,0,0,0,0,0,0.012,0.0124,0.0125,0.0121,0.012,0.0114,0.0114,0.0114,0.0108,0.0108,0.0108,0.0108,0.0095,0.0095,0.0094,0.0091,0,0,0.0092,0.0092,0,0,0,0,0,0,0,0,0.012,0.012,0.0122,0.0121,0.0121,0.0113,0.0109,0.0106,0.0108,0.0112,0.0108,0.0108,0.0101,0.01,0.0097,0.009,0.009,0.0092,0.0092,0.0092,0.0092,0,0,0,0,0,0,0,0.012,0.012,0.0121,0.0121,0.0121,0.0113,0.0113,0.0108,0.0107,0.0112,0.0112,0.0111,0.01,0.0098,0.0097,0.0089,0.0092,0.0092,0.0092,0.0091,0.0098,0.0098,0,0,0,0,0,0,0.0123,0.012,0.0121,0.012,0.012,0.0114,0.0113,0.0115,0.0107,0.0105,0.0111,0.011,0.0099,0.0098,0.0097,0.0117,0.0092,0.0091,0.0091,0.0097,0.0098,0.0098,0,0,0,0,0,0,0.0123,0.0123,0.0121,0.012,0.0119,0.0114,0.0116,0.0115,0.0116,0.0106,0.0104,0.0114,0.0099,0.0097,0.0099,0.0115,0.0091,0.0091,0.0097,0.0098,0.0098,0.0142,0,0,0,0,0,0,0.0123,0.0123,0.0127,0.012,0.012,0.0124,0.0116,0.0115,0.0116,0.0115,0.0108,0.0106,0.0099,0.01,0.0099,0.0114,0.009,0.0096,0.0097,0.0098,0.014,0.0144,0.0148,0,0,0,0,0,0.0123,0.0129,0.0128,0.0128,0.0125,0.0125,0.0124,0.0119,0.0116,0.012,0.0116,0.0107,0.0105,0.01,0.0098,0.0114,0.0096,0.0097,0.0098,0.0138,0.0143,0.0148,0,0,0,0,0,0,0.013,0.0129,0.0127,0.0133,0.0132,0.0124,0.0128,0.0123,0.0122,0.0124,0.0112,0.011,0.0117,0.0108,0.0103,0.0118,0.0099,0.01,0.0131,0.0135,0.0139,0.0155,0.009,0,0,0,0,0,0.0134,0.014,0.0136,0.0141,0.0142,0.0135,0.0135,0.0133,0.013,0.013,0.0124,0.012,0.012,0.0122,0.0117,0.0125,0.0106,0.0134,0.0138,0.0141,0.0153,0.014,0.0144,0.0102,0.0102,0.0102,0,0,0.0138,0.0139,0.0142,0.0144,0.0142,0.0153,0.0136,0.014,0.0154,0.0128,0.0144,0.0132,0.0123,0.0134,0.0137,0.013,0.0139,0.0143,0.0146,0.0155,0.0142,0.0146,0.0149,0.0103,0.0103,0.0103,0,0,0.0154,0.0151,0.0163,0.0166,0.0168,0.0167,0.0171,0.0167,0.017,0.0179,0.0167,0.0167,0.0164,0.0165,0.0164,0.0187,0.0158,0.0182,0.0219,0.0206,0.021,0.0213,0.0178,0.0177,0.0187,0.0187,0.0187,0,0.016,0.0176,0.0167,0.018,0.0192,0.0177,0.0199,0.0198,0.0197,0.0208,0.0192,0.0194,0.0183,0.0203,0.0209,0.0198,0.0175,0.0202,0.0212,0.0215,0.0217,0.018,0.0179,0.019,0.0189,0.0189,0.0189,0,0.0184,0.02,0.0208,0.0225,0.0234,0.0248,0.0251,0.0261,0.026,0.0261,0.0274,0.0254,0.0261,0.0252,0.0238,0.0252,0.0224,0.0215,0.0201,0.0224,0.0183,0.0181,0.0193,0.0192,0.0191,0.0191,0,0,0.0197,0.0221,0.0227,0.0252,0.0263,0.0279,0.0301,0.0325,0.0353,0.0337,0.0368,0.0353,0.0339,0.0337,0.0315,0.0301,0.0286,0.0268,0.0266,0.0235,0.0239,0.0218,0.0213,0.0276,0.0277,0.0277,0.0199,0,0.0224,0.0265,0.027,0.032,0.0345,0.035,0.0381,0.0399,0.0404,0.0427,0.0403,0.0419,0.0373,0.038,0.0358,0.0308,0.0286,0.0307,0.0221,0.0218,0.0199,0.0213,0.0278,0.0197,0.0196,0.0196,0.0196,0,0.0252,0.0279,0.0328,0.0386,0.04,0.0429,0.0485,0.0512,0.0531,0.0536,0.0534,0.051,0.0491,0.045,0.0371,0.0384,0.0321,0.0271,0.0266,0.0235,0.0195,0.0173,0.0192,0.0192,0.0192,0.0193,0.0193,0,0.0278,0.0328,0.0374,0.039,0.0442,0.0478,0.0515,0.0548,0.0593,0.0607,0.063,0.059,0.0583,0.05,0.0391,0.0383,0.0292,0.0269,0.0186,0.0183,0.0205,0.0202,0.022,0.022,0.022,0.022,0.0221,0,0.0309,0.035,0.0394,0.042,0.05,0.0522,0.0609,0.0634,0.0683,0.0738,0.0693,0.071,0.0596,0.0527,0.0417,0.0293,0.031,0.0197,0.017,0.0221,0.0222,0.0201,0.02,0.0217,0.0218,0.0219,0.0219,0,0.0331,0.0354,0.0418,0.0483,0.0515,0.0575,0.0684,0.0745,0.0773,0.084,0.085,0.0806,0.071,0.058,0.0441,0.0336,0.0216,0.0168,0.0223,0.0199,0.0102,0.0104,0.0066,0.0065,0.0064,0.0063,0.0062,0,0.0345,0.0376,0.0464,0.0517,0.0552,0.0647,0.0723,0.079,0.0854,0.0893,0.0926,0.0859,0.0805,0.0591,0.0443,0.023,0.0198,0.0121,0.0119,0.0113,0.009,0.0094,0.0097,0.0061,0.006,0.006,0.006,0,0.0374,0.0403,0.0457,0.0561,0.0649,0.0755,0.0858,0.0907,0.0976,0.1,0.099,0.088,0.0771,0.0594,0.0432,0.0278,0.0162,0.0109,0.011,0.0107,0.0106,0.0085,0.0089,0.0056,0.0057,0.0057,0.0057,0,0.04,0.0442,0.0513,0.061,0.0722,0.0827,0.0881,0.0954,0.1018,0.1044,0.1033,0.0912,0.0846,0.0619,0.0468,0.0316,0.0269,0.0201,0.0196,0.0198,0.0256,0.0274,0.0261,0,0,0,0,0,0.0422,0.0471,0.0559,0.0667,0.0778,0.0845,0.0961,0.1003,0.1054,0.1055,0.1048,0.0943,0.0723,0.0634,0.0479,0.0435,0.0234,0.0244,0.0151,0.0037,0.0041,0.0085,0,0,0,0,0,0,0.0439,0.0514,0.0556,0.0698,0.0776,0.0907,0.098,0.1014,0.1017,0.1032,0.0927,0.088,0.0677,0.081,0.0468,0.0423,0.0335,0.0151,0.0146,0.0034,0.0038,0.0041,0.0088,0,0,0,0,0]}]]